Temperature
15 14 14 13 13 13 13 13 13 13 13 12 12 13 13 13 12 12 11 11 10 10 9 9 8 8 8 8 8 8 8 8 8 8 8 8 8 8 9 9 9 9 9
15 14 13 13 13 13 13 13 12 12 12 12 12 12 12 12 12 12 11 10 10 9 9 8 8 8 8 8 7 7 7 7 8 8 8 7 8 8 7 7 7 7 8
14 14 13 13 13 12 12 12 12 12 12 12 12 12 12 12 12 12 11 10 9 9 8 8 8 8 8 7 7 7 6 6 7 7 7 7 7 7 6 6 6 6 6
14 13 13 13 13 12 12 12 12 12 12 12 12 12 12 12 12 11 11 10 9 8 8 8 8 7 7 7 7 6 6 6 6 6 6 6 5 5 5 5 5 5 5
14 13 13 13 12 12 12 12 12 12 12 12 12 12 12 12 11 11 10 9 9 8 8 7 7 7 7 6 6 6 6 5 5 5 5 4 4 4 4 4 4 4 4
13 13 13 12 12 12 12 12 12 12 12 12 12 12 11 11 11 10 10 9 8 8 7 7 7 6 6 6 5 5 5 5 4 4 3 3 3 2 2 2 2 3 3
14 13 13 12 12 12 12 12 12 12 12 12 11 11 11 10 10 9 9 8 7 7 6 6 6 5 5 5 5 5 5 4 4 3 2 2 1 1 1 1 1 2 2
14 13 13 13 12 12 12 12 12 12 11 11 11 11 11 10 9 9 8 7 7 6 6 5 5 5 4 4 4 4 4 4 3 2 1 1 0 0 0 1 1 1 1
14 14 13 13 12 12 12 12 12 11 11 11 11 11 11 10 9 8 8 7 6 6 5 5 4 4 4 4 4 3 3 3 2 0 0 -0 -0 -0 -0 -0 0 0 1
15 14 14 13 13 12 12 12 11 11 11 11 11 10 10 10 9 8 7 7 6 5 5 4 4 3 3 3 3 2 2 1 -0 -1 -1 -1 -1 -1 -1 -1 -0 -0 0
15 14 14 13 12 12 12 11 11 11 11 10 10 10 9 9 8 7 7 6 5 5 4 4 4 3 3 2 2 1 0 -0 -2 -2 -2 -2 -2 -2 -1 -1 -1 -1 -1
15 14 13 13 12 12 11 11 10 10 10 10 9 9 8 8 7 6 5 5 5 5 4 4 3 3 2 1 1 -0 -1 -1 -2 -3 -3 -3 -3 -3 -2 -2 -2 -2 -2
14 14 13 12 12 11 11 10 10 9 9 9 8 8 7 7 6 5 4 3 3 3 3 3 2 1 1 -0 -1 -2 -2 -2 -2 -3 -4 -4 -4 -4 -4 -4 -3 -3 -3
14 14 13 12 11 10 10 9 9 8 8 8 8 7 6 6 5 4 3 2 1 1 1 2 1 1 -1 -2 -2 -2 -2 -3 -3 -3 -4 -5 -5 -5 -5 -5 -4 -4 -4
13 12 12 11 10 9 9 8 8 7 7 7 6 6 5 4 4 3 2 1 0 -2 -2 -1 -1 -1 -2 -2 -2 -3 -3 -4 -4 -4 -5 -5 -5 -6 -6 -5 -5 -5 -5
12 11 11 10 9 8 7 7 6 6 6 6 5 5 4 3 3 2 1 0 -1 -2 -3 -3 -3 -3 -3 -3 -4 -4 -5 -5 -5 -5 -5 -6 -6 -6 -6 -6 -6 -6 -5
10 10 9 8 7 7 6 6 5 5 5 4 4 4 3 2 2 1 0 -1 -1 -3 -4 -4 -4 -4 -4 -4 -4 -5 -5 -5 -5 -5 -6 -6 -6 -6 -6 -6 -6 -6 -6
9 8 8 7 6 5 5 5 4 4 4 3 3 2 2 1 1 0 -1 -1 -2 -3 -4 -5 -5 -5 -5 -6 -6 -6 -6 -6 -6 -6 -6 -7 -7 -6 -6 -6 -6 -6 -6
7 7 6 5 5 4 4 3 3 3 3 2 2 1 1 0 -0 -1 -2 -3 -3 -4 -5 -6 -7 -7 -7 -7 -7 -7 -7 -7 -7 -7 -7 -7 -6 -6 -6 -6 -6 -6 -6
6 5 4 4 3 3 3 3 3 2 2 1 1 0 -0 -1 -1 -2 -3 -4 -5 -6 -6 -7 -7 -8 -8 -8 -8 -8 -8 -8 -7 -7 -7 -7 -6 -6 -6 -6 -6 -6 -6
3 3 3 2 2 2 2 2 2 1 1 0 -0 -1 -1 -1 -2 -3 -5 -5 -6 -7 -7 -8 -8 -8 -8 -8 -8 -9 -9 -9 -8 -7 -7 -7 -6 -6 -6 -6 -6 -6 -6
2 2 2 2 2 2 1 1 1 0 -0 -1 -1 -1 -2 -2 -3 -4 -5 -6 -7 -7 -8 -8 -8 -9 -9 -9 -9 -9 -9 -9 -9 -8 -8 -8 -7 -6 -6 -6 -6 -6 -6
1 1 1 1 1 1 1 0 -0 -1 -1 -1 -1 -2 -3 -3 -4 -5 -6 -7 -7 -8 -8 -8 -9 -9 -9 -9 -9 -9 -9 -9 -9 -8 -8 -8 -7 -7 -6 -6 -6 -6 -6
1 1 1 1 0 0 -1 -1 -1 -1 -2 -2 -3 -4 -4 -5 -6 -6 -7 -8 -8 -8 -8 -8 -9 -9 -9 -9 -9 -9 -10 -9 -9 -8 -8 -9 -7 -7 -7 -6 -6 -5 -6
0 0 0 -0 -1 -1 -2 -2 -2 -2 -3 -3 -4 -5 -6 -6 -6 -8 -8 -8 -8 -8 -8 -8 -9 -9 -9 -9 -9 -9 -9 -9 -9 -8 -8 -9 -8 -8 -7 -6 -5 -6 -6
-0 -0 -1 -1 -1 -2 -2 -3 -4 -4 -4 -5 -5 -6 -6 -7 -8 -8 -9 -9 -9 -8 -8 -8 -8 -8 -8 -8 -8 -9 -9 -10 -10 -10 -8 -9 -9 -10 -10 -8 -7 -6 -6
Wind_Speed
6 8 8 10 10 9 7 6 6 6 6 7 7 8 8 9 9 10 12 14 14 12 11 10 9 9 9 9 10 10 10 10 10 11 11 11 11 11 12 12 12 12 13
10 8 6 7 9 10 9 8 7 6 5 5 5 7 7 9 10 11 12 13 13 12 10 8 8 8 9 9 9 9 9 10 10 11 11 11 12 12 12 13 13 13 13
14 10 6 6 8 12 11 9 8 6 4 4 4 4 5 7 9 10 11 12 12 11 9 7 7 8 9 10 10 10 10 10 10 11 11 12 12 13 13 14 14 14 15
17 12 7 7 11 13 10 6 5 4 4 3 3 2 3 5 8 10 11 11 11 10 8 7 6 6 8 10 11 11 11 10 10 11 12 12 13 13 14 15 15 16 16
18 13 8 8 13 9 6 6 4 4 3 3 2 2 2 2 5 8 8 10 10 9 8 6 5 4 6 8 10 12 11 11 11 11 12 13 14 14 15 16 17 18 18
18 14 9 10 12 7 6 6 5 3 3 3 2 2 1 1 3 4 6 8 9 9 8 6 4 2 3 6 10 11 11 11 12 12 13 14 15 16 17 18 19 20 20
17 14 9 9 9 8 8 8 5 4 2 2 3 2 2 2 1 2 3 4 5 6 7 6 4 2 2 4 8 10 12 12 13 14 15 15 17 18 19 20 21 21 21
17 15 13 12 10 8 9 8 6 4 2 2 3 3 0 2 2 0 1 2 2 3 3 3 2 3 4 5 7 10 11 12 14 15 16 18 19 20 22 23 23 23 22
16 14 13 12 11 11 10 9 7 7 5 2 2 4 4 4 2 2 1 1 1 2 1 0 2 4 6 8 8 9 11 13 15 17 19 20 22 23 24 24 24 24 24
12 14 14 13 12 10 11 9 7 5 6 4 2 2 2 3 3 1 2 2 1 1 0 1 4 7 9 9 9 11 13 14 17 19 21 23 24 25 26 26 26 25 25
9 11 12 11 11 10 10 9 7 7 4 5 4 3 2 2 2 2 2 3 3 2 2 3 5 6 8 9 10 12 14 16 19 21 24 25 27 27 27 27 27 27 27
6 8 10 9 9 9 10 9 8 8 5 6 4 3 3 3 2 3 3 3 3 4 3 4 3 4 6 8 11 15 17 18 21 24 26 27 28 28 28 28 28 28 28
6 10 10 10 9 9 9 9 9 8 7 7 6 3 3 3 3 3 3 2 3 3 3 3 2 3 3 7 13 19 19 21 23 25 27 28 28 27 27 28 28 28 28
8 10 10 10 10 11 10 9 8 7 6 6 6 5 3 3 3 3 3 3 2 3 3 4 3 2 3 11 17 20 17 22 25 27 27 27 27 27 27 28 28 29 29
9 11 11 12 11 11 10 10 7 7 6 5 5 5 3 2 2 3 3 4 3 3 3 4 3 3 8 13 17 17 16 23 26 26 26 27 27 27 28 29 29 29 29
12 13 13 12 12 11 10 9 8 6 6 4 3 4 3 2 2 2 3 3 4 5 4 4 5 5 9 14 19 19 20 25 24 25 26 27 28 28 28 28 29 29 29
14 14 14 13 12 11 10 9 7 7 6 4 3 3 2 2 2 3 3 3 4 4 7 6 4 4 6 9 14 18 19 19 19 24 27 28 28 28 29 29 29 29 29
13 14 14 14 13 11 9 9 8 6 5 4 2 1 2 2 3 3 3 4 5 5 6 8 5 5 7 9 9 10 15 18 18 24 27 28 28 28 28 28 28 29 29
14 14 14 14 12 11 9 8 7 6 4 3 1 0 2 3 4 4 5 5 5 6 5 6 8 5 6 8 9 10 11 11 17 21 24 26 27 27 28 29 29 30 30
15 15 14 13 12 10 9 8 7 5 4 3 2 1 3 4 5 5 5 6 6 6 6 6 7 7 7 8 7 9 11 8 11 15 20 22 24 26 27 29 29 29 29
15 15 14 13 11 9 7 7 6 5 3 2 2 3 4 5 6 6 5 5 5 5 5 6 8 8 8 8 9 8 13 12 11 10 9 9 11 12 16 24 26 27 28
14 13 13 11 9 7 9 9 6 4 2 2 3 4 5 5 7 10 12 13 12 8 6 6 7 10 11 10 10 11 13 14 12 4 7 12 10 12 10 11 23 28 29
13 12 10 9 8 8 8 7 6 4 2 2 3 3 4 5 8 6 10 13 12 15 16 11 10 11 13 12 12 13 12 13 15 10 11 16 11 13 11 17 26 30 31
10 9 7 7 6 5 6 5 6 4 2 1 2 2 4 5 7 9 7 6 7 8 12 10 9 11 11 10 11 12 12 12 12 10 8 12 13 13 13 9 25 28 27
8 6 5 5 4 4 5 4 4 3 1 2 4 4 6 6 13 15 9 7 8 9 14 19 20 19 22 23 18 10 9 11 14 12 6 6 6 10 12 12 14 20 21
6 5 5 4 4 2 2 1 2 2 1 3 4 5 9 11 14 16 9 7 9 9 9 10 11 14 13 15 17 8 7 10 11 8 4 4 5 7 8 5 6 8 14
Wind_Direction
182 184 187 184 186 183 175 161 146 132 120 105 99 103 106 119 118 108 106 107 107 104 96 85 72 58 45 33 26 19 14 9 5 1 357 354 352 348 344 340 336 332 327
185 184 183 183 185 181 172 158 147 132 114 102 90 101 113 125 128 121 116 113 112 109 101 87 70 53 37 25 18 13 9 5 1 358 354 351 348 343 339 335 330 326 322
187 183 177 177 177 168 153 138 126 114 102 92 86 96 116 131 142 137 130 124 121 117 111 95 74 52 35 22 13 6 2 1 357 352 348 345 342 338 334 331 326 322 318
185 177 172 172 164 154 144 134 128 106 96 96 98 89 111 136 149 151 146 143 140 136 128 112 86 58 35 18 7 359 353 351 348 345 342 339 335 332 329 326 323 318 314
181 172 168 163 156 146 141 140 124 121 119 114 119 108 110 139 154 160 163 166 165 159 151 137 111 74 35 13 1 352 344 341 339 337 334 331 329 328 325 322 318 314 310
177 168 162 159 154 145 142 135 125 103 114 131 103 78 55 120 152 167 175 180 185 179 168 155 142 103 28 3 354 345 338 334 331 329 326 325 324 322 319 317 314 310 306
174 168 164 160 159 158 156 143 125 117 105 113 101 57 12 25 126 169 178 180 191 186 172 170 178 206 305 338 343 337 331 326 322 321 320 319 318 317 315 313 310 306 303
175 173 167 169 164 153 150 151 138 128 120 115 137 125 70 330 325 72 184 187 184 163 159 178 223 260 284 299 311 324 323 317 314 314 313 314 314 314 312 309 306 303 301
177 174 171 167 166 163 168 164 152 145 147 121 120 150 160 213 252 322 360 97 148 134 106 27 321 314 309 304 303 307 310 309 308 307 309 311 311 311 308 306 304 302 301
175 171 169 167 167 165 164 165 154 147 140 146 123 84 118 143 160 256 323 2 27 134 106 335 330 331 334 329 323 318 314 309 306 306 307 309 308 308 306 304 303 302 301
168 166 167 166 165 162 158 153 145 142 136 144 148 139 114 79 98 155 253 312 330 305 298 306 323 338 351 358 351 336 324 315 310 309 309 308 307 306 305 304 303 302 301
157 162 161 160 158 155 151 146 138 133 125 124 122 124 136 142 163 161 213 260 284 291 298 301 315 345 4 16 357 339 328 320 315 311 307 306 305 304 304 304 302 300 298
168 168 159 153 149 142 137 133 129 126 126 127 126 120 120 130 139 142 165 231 269 290 301 300 268 333 17 358 343 331 324 317 313 309 306 304 304 305 304 302 299 297 296
161 154 148 144 140 137 135 129 125 121 123 127 126 125 124 135 139 150 164 170 278 293 282 273 291 287 343 338 327 321 316 313 310 306 304 304 304 303 301 299 298 296 294
142 142 141 138 135 132 131 127 123 122 127 124 127 130 137 149 142 153 159 163 185 261 276 265 281 288 318 318 314 313 310 309 306 306 305 303 302 301 300 298 296 295 294
143 141 137 133 129 126 124 117 119 122 122 121 129 138 147 164 168 173 178 184 186 208 252 252 251 272 298 306 310 312 305 307 307 304 302 302 302 300 299 298 297 296 294
142 140 136 132 128 125 122 122 123 128 128 125 126 154 192 195 199 202 199 204 211 208 255 268 251 273 282 287 300 299 299 296 294 301 302 301 301 300 299 299 297 296 294
135 134 131 127 124 122 122 124 125 127 127 129 136 164 227 228 224 223 219 226 232 227 242 276 279 275 274 281 285 288 299 298 296 299 300 301 300 300 299 298 297 297 297
128 126 124 122 120 117 114 112 113 109 104 104 100 226 260 247 247 242 237 241 245 253 245 268 285 277 277 285 289 289 288 286 291 296 299 299 298 298 298 298 299 299 297
122 118 115 113 112 110 108 106 102 96 85 64 32 323 282 258 251 249 247 248 251 260 265 271 283 288 286 285 285 295 301 288 291 295 293 293 295 297 296 297 296 296 294
112 110 108 105 104 105 106 106 102 94 77 33 349 325 307 296 280 273 266 252 245 253 264 272 286 295 297 301 300 299 302 302 291 283 280 282 287 285 287 290 293 291 290
104 104 105 107 105 109 117 114 113 103 83 18 342 336 327 322 318 321 311 303 297 289 287 281 289 294 296 295 296 297 300 304 302 278 292 297 290 288 285 280 288 291 292
101 101 103 109 114 122 127 123 114 115 83 26 355 345 345 338 342 308 302 303 300 298 298 297 291 288 291 292 292 293 293 295 296 298 300 296 292 289 286 288 293 293 293
101 105 113 118 122 139 146 136 121 116 100 5 325 314 308 306 310 305 285 282 273 278 285 286 274 275 279 281 279 291 296 297 291 285 279 286 291 289 291 285 290 289 290
107 111 115 126 137 154 161 150 134 150 208 301 305 313 321 304 310 314 313 296 288 284 294 297 296 298 301 305 306 303 301 302 300 297 276 268 283 296 293 283 278 284 289
114 115 107 108 125 144 162 83 91 164 295 313 314 311 323 321 316 318 313 300 298 294 292 298 302 302 298 296 301 293 283 290 295 296 263 264 285 308 301 260 253 272 284
Height
1530 1532 1533 1534 1536 1537 1538 1539 1539 1540 1540 1540 1540 1540 1540 1539 1539 1538 1537 1537 1536 1535 1535 1534 1533 1532 1532 1531 1530 1529 1528 1527 1525 1524 1523 1522 1521 1520 1519 1518 1518 1517 1517
1528 1529 1531 1532 1533 1535 1536 1537 1538 1539 1539 1539 1539 1538 1538 1537 1537 1536 1535 1535 1534 1534 1533 1532 1531 1531 1530 1529 1528 1526 1525 1524 1522 1521 1520 1519 1517 1516 1515 1514 1514 1513 1512
1525 1527 1528 1530 1531 1533 1534 1535 1536 1537 1538 1538 1537 1537 1536 1536 1535 1534 1533 1533 1533 1532 1531 1531 1530 1529 1528 1527 1525 1524 1522 1521 1519 1518 1516 1515 1514 1513 1511 1510 1509 1509 1508
1522 1524 1526 1527 1529 1531 1532 1533 1535 1535 1536 1536 1536 1535 1534 1534 1533 1532 1531 1531 1531 1530 1530 1529 1528 1527 1526 1524 1523 1521 1520 1518 1516 1514 1513 1511 1510 1509 1507 1506 1505 1504 1503
1519 1521 1523 1525 1527 1528 1530 1532 1533 1534 1534 1534 1534 1533 1532 1531 1530 1530 1529 1529 1529 1528 1528 1527 1526 1525 1523 1521 1520 1518 1516 1514 1512 1510 1509 1507 1506 1504 1503 1502 1500 1499 1498
1515 1518 1520 1522 1524 1526 1527 1529 1530 1531 1532 1532 1532 1531 1530 1529 1528 1528 1527 1527 1526 1526 1525 1524 1523 1522 1520 1518 1516 1514 1512 1510 1508 1506 1505 1503 1501 1500 1498 1497 1495 1494 1493
1511 1514 1516 1518 1520 1522 1524 1526 1527 1528 1529 1529 1529 1529 1528 1527 1526 1525 1525 1525 1524 1523 1522 1521 1520 1518 1517 1515 1512 1510 1508 1506 1504 1502 1501 1499 1497 1495 1494 1492 1490 1488 1487
1506 1508 1511 1513 1516 1518 1520 1522 1523 1524 1525 1526 1526 1526 1525 1525 1523 1523 1522 1522 1521 1521 1519 1518 1517 1515 1513 1510 1508 1505 1503 1501 1499 1497 1496 1495 1493 1490 1488 1486 1484 1483 1481
1501 1503 1505 1508 1511 1513 1515 1517 1519 1521 1522 1522 1522 1523 1521 1520 1520 1520 1518 1518 1518 1517 1516 1515 1513 1511 1508 1506 1503 1501 1498 1496 1494 1492 1491 1489 1487 1484 1482 1480 1478 1476 1474
1495 1498 1500 1503 1506 1508 1511 1513 1515 1516 1517 1518 1518 1518 1518 1517 1517 1516 1515 1515 1514 1514 1513 1512 1510 1507 1504 1501 1498 1496 1493 1490 1488 1487 1485 1483 1480 1478 1475 1473 1471 1469 1467
1489 1492 1495 1497 1500 1503 1505 1508 1510 1512 1513 1513 1514 1514 1513 1513 1512 1512 1511 1511 1511 1510 1509 1508 1505 1502 1499 1496 1493 1490 1487 1484 1482 1480 1478 1475 1473 1470 1467 1465 1463 1460 1458
1482 1485 1488 1491 1494 1497 1500 1503 1505 1507 1508 1508 1509 1509 1509 1509 1508 1507 1506 1505 1505 1504 1504 1502 1500 1497 1494 1491 1488 1484 1481 1478 1475 1472 1470 1467 1464 1461 1459 1456 1454 1452 1450
1475 1478 1482 1485 1489 1492 1495 1497 1500 1501 1503 1503 1504 1504 1504 1504 1504 1503 1502 1500 1498 1496 1495 1495 1493 1491 1487 1484 1481 1478 1474 1471 1467 1464 1461 1458 1455 1452 1449 1447 1445 1443 1441
1469 1472 1476 1479 1483 1486 1489 1492 1495 1496 1498 1499 1500 1500 1500 1500 1499 1498 1498 1496 1492 1490 1488 1488 1486 1484 1481 1478 1475 1470 1466 1463 1459 1455 1452 1449 1446 1443 1440 1438 1436 1434 1432
1463 1467 1471 1474 1478 1481 1485 1488 1490 1492 1494 1495 1496 1496 1496 1496 1495 1494 1493 1491 1490 1485 1481 1480 1479 1477 1474 1470 1467 1462 1458 1454 1451 1447 1444 1440 1437 1434 1432 1429 1427 1425 1422
1458 1462 1466 1470 1473 1477 1481 1483 1486 1489 1490 1491 1492 1492 1492 1492 1490 1489 1488 1486 1484 1481 1476 1473 1472 1470 1467 1463 1459 1455 1450 1446 1443 1439 1435 1432 1429 1426 1423 1420 1418 1415 1413
1453 1457 1461 1466 1470 1473 1477 1480 1483 1485 1487 1488 1488 1489 1488 1487 1486 1484 1482 1481 1479 1476 1470 1466 1465 1462 1459 1455 1451 1447 1443 1439 1435 1431 1427 1424 1421 1417 1414 1411 1408 1406 1403
1449 1453 1458 1462 1467 1471 1475 1478 1480 1482 1484 1485 1485 1484 1484 1482 1481 1479 1477 1475 1473 1470 1465 1459 1457 1454 1451 1448 1443 1439 1435 1431 1427 1423 1419 1416 1412 1409 1405 1402 1399 1396 1393
1445 1450 1455 1460 1465 1469 1473 1476 1478 1480 1481 1481 1480 1480 1479 1477 1475 1473 1471 1469 1466 1463 1460 1455 1450 1447 1443 1440 1435 1431 1427 1423 1419 1415 1411 1407 1404 1400 1397 1394 1390 1386 1383
1443 1448 1454 1460 1465 1469 1471 1474 1476 1477 1477 1477 1476 1475 1473 1472 1470 1467 1465 1463 1460 1457 1454 1450 1445 1441 1437 1433 1429 1424 1417 1414 1410 1407 1403 1399 1396 1392 1389 1385 1381 1377 1373
1444 1449 1454 1460 1464 1468 1470 1472 1473 1474 1473 1473 1472 1470 1468 1466 1464 1462 1460 1457 1454 1451 1448 1444 1439 1435 1431 1427 1423 1418 1412 1406 1401 1399 1393 1390 1386 1382 1379 1375 1371 1367 1363
1446 1451 1456 1460 1464 1466 1468 1469 1470 1470 1470 1469 1467 1465 1463 1461 1459 1456 1454 1452 1450 1447 1443 1439 1434 1430 1425 1422 1417 1412 1407 1400 1393 1391 1387 1381 1379 1373 1370 1366 1362 1358 1354
1449 1454 1458 1461 1463 1465 1466 1467 1467 1467 1466 1464 1462 1460 1458 1455 1453 1450 1447 1445 1443 1441 1439 1435 1429 1425 1420 1416 1412 1406 1402 1396 1389 1385 1381 1372 1370 1364 1361 1356 1353 1349 1345
1452 1455 1458 1461 1463 1464 1464 1464 1464 1463 1462 1460 1458 1455 1452 1449 1447 1444 1441 1439 1436 1434 1432 1428 1424 1419 1415 1411 1407 1402 1396 1389 1383 1379 1376 1366 1360 1356 1350 1346 1344 1340 1337
1454 1457 1459 1461 1462 1462 1462 1462 1461 1459 1458 1455 1453 1450 1447 1444 1441 1439 1437 1433 1430 1427 1425 1421 1417 1414 1410 1406 1401 1396 1390 1383 1375 1370 1368 1361 1353 1346 1339 1335 1333 1330 1327
1456 1458 1459 1460 1461 1461 1460 1459 1457 1455 1453 1450 1448 1445 1442 1439 1436 1434 1431 1427 1423 1420 1417 1413 1410 1407 1403 1399 1395 1391 1385 1378 1371 1363 1359 1355 1347 1342 1329 1321 1321 1320 1317